Theta_e
355 351 358 355 355 354 354 349 341 345 346 347 344 344 343 341 337 332 334 336 326 332 328 324 324 321 319 323 323 327 327 327 326 324 326 325 327 329 329 335 334 332 335
357 353 358 357 356 353 354 350 344 346 348 343 344 342 339 336 333 320 318 321 325 318 314 318 315 313 313 314 321 322 324 321 325 325 325 327 326 326 328 327 327 331 333
355 354 359 357 355 354 354 350 349 347 347 345 341 340 337 333 321 319 316 315 313 314 316 313 311 310 310 311 311 312 310 321 324 323 322 323 323 324 320 317 321 326 327
356 355 358 355 354 352 354 350 349 347 347 345 339 338 336 328 316 315 312 311 314 313 315 312 308 308 308 308 308 308 308 309 313 316 321 321 322 319 317 319 314 315 315
357 355 352 354 351 350 352 348 348 346 345 341 339 338 333 323 313 311 314 315 317 315 315 316 312 306 307 307 309 310 312 310 309 308 316 315 314 312 312 312 314 318 315
357 355 358 357 355 354 351 345 341 335 341 340 338 338 329 316 310 310 313 311 310 310 311 316 314 307 308 308 312 315 316 314 313 310 312 312 312 312 312 312 316 317 317
355 359 359 356 353 351 349 345 342 336 340 339 338 333 320 311 310 312 316 313 309 309 308 310 311 309 309 309 310 316 317 317 315 313 313 314 315 315 314 313 317 317 317
359 360 352 346 350 349 347 341 340 340 339 338 336 325 313 310 310 310 309 310 308 308 308 308 310 310 309 309 310 311 313 318 317 313 314 315 315 315 315 314 314 316 317
356 345 340 345 347 346 342 336 339 339 339 338 329 318 310 309 309 309 315 319 317 318 318 318 318 317 314 312 311 311 312 313 315 314 315 315 315 316 315 315 315 315 315
343 345 344 345 344 343 341 337 339 339 338 334 325 314 309 309 308 309 318 320 319 318 320 319 320 318 316 312 312 314 317 317 317 315 317 317 317 316 316 316 316 315 314
343 348 345 344 343 341 343 340 339 337 336 331 320 311 309 309 309 309 314 317 318 318 318 319 319 318 312 317 317 318 318 318 318 318 319 319 318 317 316 316 316 315 314
347 346 345 344 343 341 340 340 337 337 333 324 315 310 309 309 309 309 309 309 310 312 313 316 316 315 317 318 319 319 319 318 319 318 319 320 317 318 317 316 315 315 315
347 347 345 342 341 342 340 337 338 335 327 317 312 318 319 311 310 310 310 311 314 317 317 316 314 315 319 320 319 321 319 320 319 318 320 318 318 316 315 314 315 315 315
347 346 345 343 343 341 339 337 335 327 321 319 316 320 320 319 319 318 318 319 319 318 315 314 315 317 320 319 319 320 320 319 318 316 315 315 314 313 313 315 315 315 315
345 345 346 342 339 342 338 333 329 325 322 320 320 320 319 319 319 319 319 318 315 314 314 315 316 319 320 320 319 320 318 316 314 313 313 312 312 314 313 314 314 314 314
346 343 342 340 340 338 335 330 328 325 322 320 319 319 319 319 319 318 318 316 313 314 315 316 318 319 321 319 319 317 316 313 311 311 311 311 311 311 311 313 313 314 313
343 341 340 340 338 334 330 327 326 323 318 318 318 318 319 318 316 314 312 313 314 315 316 318 319 320 320 319 317 316 313 311 310 310 310 309 310 311 311 312 312 311 312
344 343 340 338 332 329 325 323 319 315 312 312 312 312 312 312 312 311 312 313 315 316 319 320 321 321 319 317 316 313 310 309 308 308 308 310 311 311 310 311 311 310 309
343 340 334 330 327 324 323 321 320 318 318 318 318 317 319 317 313 314 316 315 317 316 318 319 320 319 318 316 312 309 308 307 306 306 307 307 307 307 307 308 309 310 310
338 331 329 327 324 323 322 321 319 322 322 321 320 320 320 319 318 319 318 318 319 319 320 321 319 318 315 311 308 308 307 306 305 305 304 304 302 301 301 302 305 308 309
328 328 327 325 326 323 321 321 323 322 321 321 320 320 320 319 319 318 319 320 319 321 319 320 318 316 312 309 308 307 306 306 305 304 304 300 297 299 299 300 302 304 307
328 326 326 325 323 322 323 324 322 321 321 320 320 320 319 319 319 319 320 320 319 319 320 318 315 313 309 308 307 307 306 306 305 304 303 299 297 297 297 301 304 306 307
327 326 324 324 324 323 322 322 321 321 321 320 321 320 319 319 319 320 320 320 320 320 319 316 314 311 309 307 307 307 306 306 305 303 301 298 297 297 297 301 303 306 308
326 325 323 323 322 322 322 321 322 321 321 320 320 320 320 320 321 320 320 320 319 319 318 315 312 310 308 308 307 307 307 306 305 302 299 298 297 297 297 302 306 307 308
325 324 323 322 322 322 322 321 321 321 321 320 320 320 321 320 320 321 322 321 320 319 318 314 312 309 308 308 307 307 307 305 303 300 298 297 297 298 299 305 306 308 309
324 323 323 323 323 322 321 322 320 321 321 321 321 320 321 321 320 320 320 320 320 319 317 315 311 309 308 308 308 307 306 304 301 299 298 297 299 301 304 306 307 308 309
Wind_Speed
28 24 19 17 19 17 17 18 20 19 12 11 7 8 5 3 6 6 3 10 7 4 7 8 10 9 8 8 5 10 8 11 12 14 15 13 16 10 12 11 14 6 14
31 26 23 22 24 21 17 21 19 17 14 11 9 7 1 4 6 7 2 3 5 7 8 8 11 12 10 11 6 6 7 9 11 17 11 17 12 13 13 16 13 8 8
29 27 26 23 24 21 21 19 20 18 16 14 8 4 2 4 4 6 4 4 6 7 6 10 12 12 12 11 12 12 13 8 9 12 13 14 11 18 17 11 12 12 11
31 24 23 26 22 23 24 21 24 22 17 12 8 4 2 6 5 3 5 4 3 6 6 9 12 12 13 14 14 14 15 13 9 7 10 11 13 16 14 18 18 16 14
30 26 26 21 19 20 19 23 18 15 14 9 5 4 2 5 3 2 5 5 7 8 9 12 15 15 14 14 16 16 17 18 19 16 13 14 18 20 22 21 18 19 19
27 24 22 20 21 23 22 15 22 15 15 8 4 3 1 3 0 2 3 5 5 5 7 9 13 13 15 15 16 18 18 22 24 23 19 18 20 23 23 23 19 23 23
25 26 23 21 23 24 24 18 8 13 12 8 5 1 1 1 3 6 6 4 5 5 5 4 4 12 14 15 14 14 16 18 22 21 19 17 20 25 24 26 19 22 21
29 27 23 20 22 25 22 11 14 14 10 6 4 1 3 3 7 6 3 3 4 5 7 8 10 14 15 15 15 15 13 9 17 21 14 12 17 20 21 24 22 19 16
26 20 17 19 23 24 19 19 15 12 10 6 3 1 2 6 7 4 4 6 10 5 11 13 13 14 18 18 18 19 19 19 20 20 11 11 12 15 18 20 18 18 22
18 15 14 18 18 20 21 21 15 12 9 6 4 4 7 7 6 5 8 6 5 7 12 12 9 13 20 20 19 17 19 21 26 19 10 14 18 17 18 19 12 18 29
14 17 15 17 18 18 19 19 16 12 10 7 6 6 8 8 6 6 8 7 6 3 1 5 12 16 16 14 14 17 18 21 23 19 18 18 21 21 17 18 16 26 28
15 18 19 20 19 21 21 19 17 13 11 9 7 8 8 8 6 5 5 4 1 3 6 3 10 16 12 16 18 19 20 21 23 22 21 21 27 22 17 23 26 20 24
20 19 17 19 22 22 20 18 16 13 12 10 10 9 6 6 7 3 0 2 4 5 8 10 14 19 12 19 19 18 18 20 24 23 21 25 21 20 23 24 23 24 24
25 24 25 25 23 19 18 15 13 13 9 9 9 12 11 6 4 3 1 2 5 6 11 14 18 11 13 19 22 17 16 18 19 21 25 23 28 32 24 20 23 23 21
26 27 26 21 23 21 13 13 8 12 8 8 7 7 13 11 13 9 7 5 9 9 12 15 18 12 17 20 22 14 17 20 24 21 26 31 24 23 23 23 23 23 26
25 27 26 22 19 20 19 19 17 14 14 14 14 15 13 10 9 11 13 14 9 11 15 17 20 19 21 21 19 18 24 24 23 28 24 23 23 25 25 23 23 21 22
20 22 17 18 16 18 14 16 18 16 15 19 17 15 12 10 10 11 11 8 8 13 17 12 12 14 19 20 20 27 27 26 26 23 22 26 22 25 24 23 24 24 22
20 23 22 17 17 13 11 11 7 11 13 14 15 9 5 4 6 6 7 8 10 13 19 18 12 14 18 20 27 29 28 26 24 24 23 22 22 22 24 23 22 22 26
23 22 18 18 15 14 12 11 11 6 6 4 6 6 2 4 2 3 7 10 12 15 16 21 18 16 20 27 27 24 24 23 21 21 20 21 22 22 22 22 23 23 21
16 25 20 20 19 17 12 11 10 7 8 7 9 12 9 6 6 8 11 12 10 15 13 14 14 15 24 23 21 22 22 20 19 20 20 22 24 23 21 22 22 23 23
23 19 23 21 15 11 11 10 10 8 7 9 7 8 8 4 6 9 4 5 15 10 13 8 15 21 19 20 20 21 18 18 17 19 23 28 27 23 22 22 17 18 19
18 20 14 10 10 13 11 9 9 8 8 9 11 10 8 8 7 10 12 4 5 11 8 13 17 19 18 19 23 20 17 17 18 24 31 33 28 25 23 17 13 18 24
9 13 11 12 12 12 11 9 9 9 8 7 7 8 8 4 6 7 5 10 17 10 13 14 17 17 19 20 20 15 17 20 24 30 33 28 27 24 20 17 17 15 18
10 11 11 12 12 10 10 10 10 10 9 6 5 6 5 6 4 8 13 9 12 11 14 13 16 19 16 20 16 14 18 22 30 33 27 26 25 22 20 16 12 16 22
12 11 12 13 11 11 10 11 11 9 8 6 7 7 5 7 7 5 8 11 9 13 15 15 17 15 17 19 19 21 24 28 32 28 25 24 22 20 15 13 15 18 23
11 12 13 13 11 9 11 10 10 11 9 8 5 5 4 5 10 9 10 8 13 15 16 18 14 16 17 16 20 24 28 30 28 25 24 21 20 16 14 19 20 22 23
Wind_Direction
197 194 192 192 199 199 195 183 184 193 189 153 164 160 202 279 312 327 38 327 350 349 334 351 340 351 18 338 48 342 356 327 331 332 358 360 5 331 320 322 321 334 327
196 189 190 186 197 207 201 194 198 183 179 167 154 174 207 312 346 358 359 350 338 341 358 345 353 2 7 11 21 12 337 347 11 336 5 4 352 330 317 313 301 294 297
198 192 194 198 201 196 200 205 184 187 187 168 165 173 235 353 334 340 5 8 345 8 4 20 30 33 32 26 25 15 16 35 21 353 357 339 338 315 326 324 311 291 264
199 193 203 200 206 195 206 201 191 188 185 179 166 156 29 350 346 336 4 28 33 40 38 40 31 27 27 24 21 17 16 14 5 358 10 352 328 329 337 336 342 339 339
193 196 206 206 209 202 209 195 198 172 195 181 167 129 5 9 353 24 36 65 64 61 47 24 20 21 19 19 18 15 15 14 12 8 358 348 345 350 352 348 349 345 340
200 198 202 198 197 201 197 182 130 166 216 194 186 158 234 331 49 125 83 104 93 74 75 50 9 27 23 17 20 15 13 8 3 359 359 357 360 0 0 358 4 358 3
198 195 195 197 209 206 203 207 256 202 193 196 199 192 21 68 124 137 128 96 76 71 72 99 36 28 23 22 11 15 5 359 352 351 345 359 360 3 356 2 4 356 353
192 196 206 210 209 204 201 232 198 191 197 207 223 31 59 122 133 140 131 112 85 66 33 40 35 23 15 12 11 7 357 360 319 339 330 347 344 344 345 351 350 341 345
196 200 209 203 201 199 213 191 191 200 196 200 188 102 158 148 144 138 120 42 3 15 22 8 8 1 359 353 351 350 351 351 345 334 341 349 327 316 326 330 338 340 333
193 199 201 187 197 195 197 198 193 194 189 192 190 203 165 162 155 148 142 150 316 339 332 348 348 346 341 345 345 351 354 354 352 352 1 356 351 342 327 322 323 322 332
183 190 193 185 192 195 175 186 187 183 187 198 210 182 179 177 175 169 171 193 198 210 241 355 333 324 334 345 352 350 345 339 345 351 340 346 327 320 323 321 324 315 312
180 181 189 185 188 176 182 186 179 192 197 200 195 184 187 183 188 195 203 227 267 345 337 309 310 332 325 322 328 328 329 326 336 339 334 319 323 320 308 306 306 307 308
176 184 190 186 181 185 186 184 189 194 198 194 184 168 220 201 202 194 160 18 29 355 340 333 333 333 331 344 342 339 321 327 332 331 321 324 323 317 312 314 312 307 307
178 182 180 183 185 184 187 191 189 184 191 188 175 172 216 245 244 243 301 15 344 324 332 328 325 328 349 332 341 342 338 338 336 325 319 313 307 313 319 318 311 307 305
181 184 181 185 181 167 172 166 190 183 202 186 184 182 207 208 212 214 180 206 275 292 305 316 330 333 323 320 334 333 330 326 327 317 310 314 322 321 318 317 314 309 308
183 179 184 176 173 170 177 179 188 204 198 201 205 208 207 217 216 221 243 271 275 290 305 319 323 333 323 326 330 328 323 323 317 317 324 324 322 319 319 318 317 311 313
187 173 162 168 170 185 175 193 201 207 213 214 216 221 230 235 263 267 271 262 276 295 300 315 314 323 322 332 324 323 321 318 318 326 325 321 327 323 319 318 319 319 317
175 174 168 168 169 185 172 190 205 215 217 217 221 227 236 264 273 283 264 271 293 299 314 313 313 321 332 320 318 319 321 321 327 323 327 328 325 323 323 325 323 321 318
185 173 162 159 183 182 197 164 194 208 203 204 189 186 175 68 113 236 270 271 285 292 316 308 331 335 312 316 322 322 320 323 321 323 326 321 315 313 313 316 321 319 316
172 152 159 183 184 186 185 185 189 192 197 217 224 245 231 221 265 276 290 284 293 307 305 307 320 306 314 325 320 315 314 318 320 323 319 311 312 311 315 316 313 312 317
161 171 184 187 206 188 205 191 196 201 210 214 218 216 207 207 299 295 6 293 311 295 315 304 302 317 320 312 308 307 315 317 323 313 304 320 324 316 308 305 308 311 312
176 181 182 167 181 199 200 203 208 213 226 234 222 203 230 263 271 280 305 333 326 333 297 307 315 317 313 303 302 315 315 320 305 306 318 322 323 323 322 322 328 329 324
179 172 177 192 193 198 199 208 205 214 228 245 252 219 237 235 257 266 260 296 334 313 299 307 315 306 306 302 314 313 310 302 310 317 319 321 323 324 322 321 311 317 323
188 186 192 194 194 196 206 218 221 224 258 277 288 312 252 241 217 302 328 325 299 288 297 309 301 307 305 306 308 313 295 305 316 322 321 321 322 323 320 316 328 332 320
197 198 199 194 199 206 216 211 222 229 220 226 235 268 280 295 298 317 314 318 306 297 304 290 296 301 298 306 307 302 307 312 319 321 323 324 324 323 326 330 327 319 326
203 204 202 205 204 212 226 216 222 233 235 237 235 228 245 272 292 301 305 306 294 296 288 297 289 296 301 304 298 302 309 316 323 327 326 325 325 334 346 336 327 315 312